STARLINK-33915, 63708

Orbit data source: Space-Track

STARLINK-33915, 63708 is a payload satellite owned by SpaceX/Seattle (US) in LEO that was launched on Mon, 28 Apr 2025 UTC via an FALCON 9 launch vehicle from the Air Force Western Test Range (AFWTR). Payload-class satellites include a variety of spacecraft equipped with specific instruments for various scientific and technological missions. These include communications satellites like Starlink; space stations such as the ISS; scientific satellites like the Hubble; Earth observation satellites from companies like Planet Labs, Umbra, and HawkEye 360; GPS; miniature CubeSats for education and research; and military/defense satellites.

Loading next visibility...
Identifier
63708, 2025-087M
Orbit
LEO
Country
Flag of USUS
Related business
Manufacturer
SpaceX/Seattle
Mission
Operational Commercial Communications
Bus & Motor
STARLINK V2MO, Unknown motor
Mass
575 kg wet, ~530 kg dry
Launch date (UTC)
2025-04-28 (1 year ago)
Launch vehicle
FALCON 9
Launch site
Air Force Western Test Range (AFWTR)
Object type
Payload
Rocket body
Debris
Shape & HBR
Box + 2 Pan, 17.7 m
Radar Cross Section
36.964 m², Large (>1 m²)

Expand to show TLE details & history
Last TLE update: 1 day ago

TLE from 1 day ago
0 STARLINK-33915
1 63708U 25087M   26170.80664354  .00014659  00000-0  50573-3 0  9996
2 63708  53.1605 105.2720 0001431  80.1990 279.9172 15.30222720 64831
Epoch: 2026-06-19T19:21Z
TLE epoch observation values (Epoch: 2026-06-19T19:21:34.001Z)
Latitude
-0.00007°
Longitude
-93.15005°
Altitude
475.878 km
Speed
7.629 km/s
True Right ascension
07h 01m 05s
True Declination
0° 00' 00"
Sunlit
Object was in daylight at epoch
Visualization orbit readout
Latitude
Unknown
Longitude
Unknown
Altitude
Unknown
Speed
Unknown
Apparent Right ascension
Unknown
Apparent Declination
Unknown
Sunlit
N/A
Visualization observer readout
Local Sidereal Time
07:19:11
Azimuth
Unknown
Elevation
Unknown
Doppler factor
Unknown
Orbital elements
Apogee altitude
476.384 km
Perigee altitude
474.423 km
Semi-major axis
6,853.541 km
Eccentricity
0.00014
Inclination
53.1605°
RAAN
105.272°
Arg. of periapsis
80.199°
True anomaly
279.90105°
Mean anomaly
279.9172°
Eccentric anomaly
279.90912°
Mean motion
3.82535 °/min
Orbital period
94.11 mins
BSTAR
0.00050573
Loading maneuver chart data...
Computing Atmospheric mass density...
Loading historical data...
Loading historical data...
Loading historical data...
Loading historical data...
Loading historical data...
Loading historical data...
Loading historical data...

Documentation

Showing up to 5 results
|